This is the latest recevied weather packets stored in our database for station/object W3AJR. If no packets are shown the sender has not sent any weather packets the latest 10 day(s).
| Time | Temp. | Humidity | Pressure | Rain* | Wind** | Luminosity | Snow |
|---|---|---|---|---|---|---|---|
| 1778180522 | 13.89° C | 70% | 1009.5 hPa | 0 mm | - | 436 W/m² | - |
| 1778180220 | 13.89° C | 70% | 1009.8 hPa | 0 mm | - | 322 W/m² | - |
| 1778179917 | 14.44° C | 71% | 1009.7 hPa | 0 mm | - | 666 W/m² | - |
| 1778179614 | 14.44° C | 66% | 1009.6 hPa | 0 mm | - | 534 W/m² | - |
| 1778179312 | 14.44° C | 65% | 1009.6 hPa | 0 mm | - | 266 W/m² | - |
| 1778179008 | 13.89° C | 67% | 1010.1 hPa | 0 mm | - | 820 W/m² | - |
| 1778178705 | 13.33° C | 66% | 1010.2 hPa | 0 mm | - | 312 W/m² | - |
| 1778178403 | 14.44° C | 67% | 1010.3 hPa | 0 mm | - | 463 W/m² | - |
| 1778178098 | 15° C | 66% | 1010.2 hPa | 0 mm | - | 725 W/m² | - |
| 1778177794 | 15° C | 67% | 1010.2 hPa | 0 mm | - | 1007 W/m² | - |
| 1778177491 | 13.33° C | 70% | 1010.3 hPa | 0 mm | - | 276 W/m² | - |
| 1778177187 | 13.33° C | 71% | 1010.5 hPa | 0 mm | - | 233 W/m² | - |
| 1778176885 | 13.33° C | 69% | 1010.3 hPa | 0 mm | - | 179 W/m² | - |
| 1778176580 | 13.33° C | 69% | 1010.3 hPa | 0 mm | - | 139 W/m² | - |
| 1778176278 | 13.33° C | 70% | 1010.2 hPa | 0 mm | - | 360 W/m² | - |
| 1778175975 | 13.33° C | 71% | 1010.3 hPa | 0 mm | - | 260 W/m² | - |
| 1778175673 | 13.33° C | 70% | 1010.3 hPa | 0 mm | - | 281 W/m² | - |
| 1778175370 | 13.89° C | 69% | 1010.4 hPa | 0 mm | - | 286 W/m² | - |
| 1778175067 | 13.33° C | 69% | 1010.4 hPa | 0 mm | - | 370 W/m² | - |
| 1778174762 | 13.89° C | 67% | 1011 hPa | 0 mm | - | 180 W/m² | - |
| 1778174460 | 13.33° C | 68% | 1010.6 hPa | 0 mm | - | 438 W/m² | - |
| 1778174155 | 13.33° C | 71% | 1010.6 hPa | 0 mm | - | 234 W/m² | - |
| 1778173852 | 13.33° C | 70% | 1010.5 hPa | 0 mm | - | 191 W/m² | - |
| 1778173549 | 13.89° C | 68% | 1011 hPa | 0 mm | - | 160 W/m² | - |
| 1778173246 | 13.89° C | 66% | 1010.7 hPa | 0 mm | - | 423 W/m² | - |
* Rain latest hour (hover to see other rain measurements)
** Current wind speed in m/s (hover to see current wind gust speed)